Location: Huntsville
(41.2590°N, 111.7678°W)
Time: 23:38:29
(UTC+00:00)

Courier 1B Rocket - Pass Details

Date: 19 June 2021
Orbit: 920 x 1202 km, 28.2° (Epoch: 24 July)

Event Time Altitude Azimuth Distance (km) Brightness Sun altitude
Rises 04:30:29 0° 246° (WSW) 3,693 8.3 -13.3°
Reaches altitude 10° 04:33:40 10° 234° (SW) 2,702 7.4 -13.7°
Maximum altitude 04:38:47 25° 182° (S) 1,796 6.0 -14.3°
Enters shadow 04:41:03 20° 151° (SSE) 1,984 6.0 -14.6°
Drops below altitude 10° 04:43:45 10° 129° (SE) 2,613 - -14.9°
Sets 04:46:46 0° 116° (ESE) 3,546 - -15.2°
